START_TIME,STEP,MOV.,M34,t_acc.,L5,t_acc.,L18,t_acc.,L14,t_acc.
1979-07-29 09:00:23.820 ,0,0,0.,12.0,0.,12.0,0.,12.0,0.,12.0
1979-07-29 09:00:35.820 ,0,0,0.,12.0,0.,12.0,0.,12.0,0.,12.0
1979-07-29 09:00:47.820 ,0,1,0.,12.0,0.,12.0,0.,12.0,0.,12.0
1979-07-29 09:00:59.820 ,0,1,0.,12.0,0.,12.0,0.,12.0,0.,12.0
1979-07-29 09:01:11.820 ,0,0,0.,12.0,0.,12.0,0.,12.0,0.,12.0
1979-07-29 09:01:23.820 ,0,0,0.,12.0,0.,12.0,0.,12.0,0.,12.0
1979-07-29 09:01:35.820 ,1,1,0.,12.0,0.,12.0,0.,12.0,0.,12.0
1979-07-29 09:01:47.820 ,1,1,0.,12.0,0.,12.0,0.,12.0,0.,12.0
1979-07-29 09:01:59.820 ,1,0,0.,12.0,0.,12.0,0.,12.0,0.,12.0
1979-07-29 09:02:11.820 ,1,0,0.,12.0,0.,12.0,0.,12.0,0.,12.0
1979-07-29 09:02:23.820 ,2,1,0.,12.0,0.,12.0,0.,12.0,0.,12.0
1979-07-29 09:02:35.820 ,2,1,0.,12.0,0.,12.0,0.,12.0,0.,12.0
1979-07-29 09:02:47.820 ,2,0,0.,12.0,0.,12.0,0.,12.0,0.,12.0
1979-07-29 09:02:59.820 ,2,0,0.,12.0,0.,12.0,0.,12.0,0.,12.0
1979-07-29 09:03:11.820 ,3,1,0.,12.0,0.,12.0,0.,12.0,0.,12.0
1979-07-29 09:03:23.820 ,3,1,1.,12.0,0.,12.0,0.,12.0,0.,12.0
1979-07-29 09:03:35.820 ,3,0,0.,12.0,0.,12.0,0.,12.0,0.,12.0
1979-07-29 09:03:47.820 ,3,0,0.,12.0,0.,12.0,0.,12.0,0.,12.0
1979-07-29 09:03:59.820 ,4,1,0.,12.0,0.,12.0,0.,12.0,0.,12.0
1979-07-29 09:04:11.820 ,4,1,0.,12.0,0.,12.0,0.,12.0,0.,12.0
1979-07-29 09:04:23.820 ,4,0,0.,12.0,0.,12.0,0.,12.0,0.,12.0
1979-07-29 09:04:35.820 ,4,0,0.,12.0,0.,12.0,0.,12.0,0.,12.0
1979-07-29 09:04:47.820 ,5,1,0.,12.0,0.,12.0,0.,12.0,0.,12.0
1979-07-29 09:04:59.820 ,5,1,0.,12.0,0.,12.0,0.,12.0,0.,12.0
1979-07-29 09:05:11.820 ,5,0,0.,12.0,0.,12.0,0.,12.0,0.,12.0
1979-07-29 09:05:23.820 ,5,0,0.,12.0,0.,12.0,0.,12.0,0.,12.0
1979-07-29 09:05:35.820 ,6,1,0.,12.0,0.,12.0,0.,12.0,0.,12.0
1979-07-29 09:05:47.820 ,6,1,0.,12.0,0.,12.0,0.,12.0,0.,12.0
1979-07-29 09:05:59.820 ,6,0,0.,12.0,0.,12.0,0.,12.0,0.,12.0
1979-07-29 09:06:11.820 ,6,0,0.,12.0,0.,12.0,0.,12.0,0.,12.0
1979-07-29 09:06:23.820 ,7,0,0.,12.0,0.,12.0,0.,12.0,0.,12.0
1979-07-29 09:06:35.820 ,7,0,0.,12.0,0.,12.0,0.,12.0,0.,12.0
1979-07-29 09:06:47.820 ,7,0,0.,12.0,0.,12.0,0.,12.0,0.,12.0
1979-07-29 09:06:59.820 ,7,0,0.,12.0,0.,12.0,0.,12.0,0.,12.0
1979-07-29 09:07:11.820 ,4,1,0.,12.0,0.,12.0,0.,12.0,0.,12.0
1979-07-29 09:07:23.820 ,4,1,0.,12.0,0.,12.0,0.,12.0,0.,12.0
1979-07-29 09:07:35.820 ,0,1,0.,12.0,0.,12.0,0.,12.0,0.,12.0
1979-07-29 09:07:47.820 ,0,1,0.,12.0,0.,12.0,0.,12.0,0.,12.0
1979-07-29 09:07:59.820 ,3,1,0.,12.0,0.,12.0,0.,12.0,0.,12.0
1979-07-29 09:08:11.820 ,3,1,0.,12.0,0.,12.0,0.,12.0,0.,12.0
1979-07-29 09:08:23.820 ,7,1,0.,12.0,0.,12.0,0.,12.0,0.,12.0
1979-07-29 09:08:35.820 ,7,1,0.,12.0,0.,12.0,0.,12.0,0.,12.0
1979-07-29 09:08:47.820 ,4,1,0.,12.0,0.,12.0,0.,12.0,0.,12.0
1979-07-29 09:08:59.820 ,4,1,0.,12.0,0.,12.0,0.,12.0,0.,12.0
1979-07-29 09:09:11.820 ,0,1,0.,12.0,0.,12.0,0.,12.0,0.,12.0
1979-07-29 09:09:23.820 ,0,1,0.,12.0,0.,12.0,0.,12.0,0.,12.0
1979-07-29 09:09:35.820 ,3,1,0.,12.0,0.,12.0,0.,12.0,0.,12.0
1979-07-29 09:09:47.820 ,3,1,0.,12.0,0.,12.0,0.,12.0,0.,12.0
1979-07-29 09:09:59.820 ,7,1,0.,12.0,0.,12.0,0.,12.0,0.,12.0
1979-07-29 09:10:11.820 ,7,1,0.,12.0,0.,12.0,0.,12.0,0.,12.0
1979-07-29 09:10:23.820 ,4,1,0.,12.0,0.,12.0,0.,12.0,0.,12.0
1979-07-29 09:10:35.820 ,4,1,0.,12.0,0.,12.0,0.,12.0,0.,12.0
1979-07-29 09:10:47.820 ,0,1,0.,12.0,0.,12.0,0.,12.0,0.,12.0
1979-07-29 09:10:59.820 ,0,1,0.,12.0,0.,12.0,0.,12.0,0.,12.0
1979-07-29 09:11:11.820 ,3,1,0.,12.0,0.,12.0,0.,12.0,0.,12.0
1979-07-29 09:11:23.820 ,3,1,0.,12.0,0.,12.0,0.,12.0,0.,12.0
1979-07-29 09:11:35.820 ,7,1,0.,12.0,0.,12.0,0.,12.0,0.,12.0
1979-07-29 09:11:47.820 ,7,1,0.,12.0,0.,12.0,0.,12.0,0.,12.0
1979-07-29 09:11:59.820 ,4,1,0.,12.0,0.,12.0,0.,12.0,0.,12.0
1979-07-29 09:12:11.820 ,4,1,0.,12.0,0.,12.0,0.,12.0,0.,12.0
1979-07-29 09:12:23.820 ,0,1,0.,12.0,0.,12.0,0.,12.0,0.,12.0
1979-07-29 09:12:35.820 ,0,1,0.,12.0,0.,12.0,0.,12.0,0.,12.0
1979-07-29 09:12:47.820 ,3,1,0.,12.0,0.,12.0,0.,12.0,0.,12.0
1979-07-29 09:12:59.820 ,3,1,0.,12.0,0.,12.0,0.,12.0,0.,12.0
1979-07-29 09:13:11.820 ,7,1,0.,12.0,0.,12.0,0.,12.0,0.,12.0
1979-07-29 09:13:23.820 ,7,1,0.,12.0,0.,12.0,0.,12.0,0.,12.0
1979-07-29 09:13:35.820 ,4,1,0.,12.0,0.,12.0,0.,12.0,0.,12.0
1979-07-29 09:13:47.820 ,4,1,0.,12.0,0.,12.0,0.,12.0,0.,12.0
1979-07-29 09:13:59.820 ,0,1,0.,12.0,0.,12.0,0.,12.0,0.,12.0
1979-07-29 09:14:11.820 ,0,1,0.,12.0,0.,12.0,0.,12.0,0.,12.0
1979-07-29 09:14:23.820 ,3,1,0.,12.0,0.,12.0,0.,12.0,0.,12.0
1979-07-29 09:14:35.820 ,3,1,0.,12.0,0.,12.0,0.,12.0,0.,12.0
1979-07-29 09:14:47.820 ,7,1,0.,12.0,0.,12.0,0.,12.0,0.,12.0
1979-07-29 09:14:59.820 ,7,1,0.,12.0,0.,12.0,0.,12.0,1.,12.0
1979-07-29 09:15:11.820 ,4,1,0.,12.0,0.,12.0,0.,12.0,0.,12.0
1979-07-29 09:15:23.820 ,4,1,0.,12.0,0.,12.0,0.,12.0,0.,12.0
1979-07-29 09:15:35.820 ,0,1,0.,12.0,0.,12.0,0.,12.0,0.,12.0
1979-07-29 09:15:47.820 ,0,1,0.,12.0,0.,12.0,0.,12.0,0.,12.0
1979-07-29 09:15:59.820 ,3,1,0.,12.0,0.,12.0,0.,12.0,0.,12.0
1979-07-29 09:16:11.820 ,3,1,0.,12.0,0.,12.0,0.,12.0,0.,12.0
1979-07-29 09:16:23.820 ,7,1,0.,12.0,0.,12.0,0.,12.0,0.,12.0
1979-07-29 09:16:35.820 ,7,1,0.,12.0,0.,12.0,0.,12.0,0.,12.0
1979-07-29 09:16:47.820 ,4,1,0.,12.0,0.,12.0,0.,12.0,0.,12.0
1979-07-29 09:16:59.820 ,4,1,0.,12.0,0.,12.0,0.,12.0,0.,12.0
1979-07-29 09:17:11.820 ,0,1,0.,12.0,0.,12.0,0.,12.0,0.,12.0
1979-07-29 09:17:23.820 ,0,1,0.,12.0,0.,12.0,0.,12.0,0.,12.0
1979-07-29 09:17:35.820 ,0,0,0.,12.0,0.,12.0,0.,12.0,0.,12.0
1979-07-29 09:17:47.820 ,0,0,0.,12.0,0.,12.0,0.,12.0,0.,12.0
1979-07-29 09:17:59.820 ,0,0,0.,12.0,0.,12.0,0.,12.0,0.,12.0
1979-07-29 09:18:11.820 ,0,0,0.,12.0,0.,12.0,0.,12.0,0.,12.0
1979-07-29 09:18:23.820 ,5,1,0.,12.0,0.,12.0,0.,12.0,0.,12.0
1979-07-29 09:18:35.820 ,5,1,0.,12.0,0.,12.0,0.,12.0,0.,12.0
1979-07-29 09:18:47.820 ,5,0,0.,12.0,0.,12.0,0.,12.0,0.,12.0
1979-07-29 09:18:59.820 ,5,0,0.,12.0,0.,12.0,0.,12.0,0.,12.0
1979-07-29 09:19:11.820 ,4,1,0.,12.0,0.,12.0,0.,12.0,0.,12.0
1979-07-29 09:19:23.820 ,4,1,0.,12.0,0.,12.0,0.,12.0,0.,12.0
1979-07-29 09:19:35.820 ,4,0,0.,12.0,0.,12.0,0.,12.0,0.,12.0
1979-07-29 09:19:47.820 ,4,0,0.,12.0,0.,12.0,0.,12.0,0.,12.0
1979-07-29 09:19:59.820 ,3,1,0.,12.0,0.,12.0,0.,12.0,0.,12.0
1979-07-29 09:20:11.820 ,3,1,0.,12.0,0.,12.0,0.,12.0,0.,12.0
1979-07-29 09:20:23.820 ,3,0,0.,12.0,0.,12.0,0.,12.0,0.,12.0
1979-07-29 09:20:35.820 ,3,0,0.,12.0,0.,12.0,0.,12.0,0.,12.0
1979-07-29 09:20:47.820 ,2,1,0.,12.0,0.,12.0,0.,12.0,0.,12.0
1979-07-29 09:20:59.820 ,2,1,0.,12.0,0.,12.0,0.,12.0,0.,12.0
1979-07-29 09:21:11.820 ,2,0,0.,12.0,0.,12.0,0.,12.0,0.,12.0
1979-07-29 09:21:23.820 ,2,0,0.,12.0,0.,12.0,0.,12.0,0.,12.0
1979-07-29 09:21:35.820 ,1,1,0.,12.0,0.,12.0,0.,12.0,0.,12.0
1979-07-29 09:21:47.820 ,1,1,0.,12.0,0.,12.0,0.,12.0,0.,12.0
1979-07-29 09:21:59.820 ,1,0,0.,12.0,0.,12.0,0.,12.0,0.,12.0
1979-07-29 09:22:11.820 ,1,0,0.,12.0,0.,12.0,0.,12.0,0.,12.0
1979-07-29 09:22:23.820 ,0,1,0.,12.0,0.,12.0,0.,12.0,0.,12.0
1979-07-29 09:22:35.820 ,0,1,0.,12.0,0.,12.0,0.,12.0,0.,12.0
1979-07-29 09:22:47.820 ,0,0,0.,12.0,0.,12.0,0.,12.0,0.,12.0
1979-07-29 09:22:59.820 ,0,0,0.,12.0,0.,12.0,0.,12.0,0.,12.0
1979-07-29 09:23:11.820 ,0,1,0.,12.0,0.,12.0,0.,12.0,0.,12.0
1979-07-29 09:23:23.820 ,0,1,0.,12.0,0.,12.0,0.,12.0,0.,12.0
1979-07-29 09:23:35.820 ,0,0,0.,12.0,0.,12.0,0.,12.0,0.,12.0
1979-07-29 09:23:47.820 ,0,0,0.,12.0,0.,12.0,0.,12.0,0.,12.0
1979-07-29 09:23:59.820 ,1,1,0.,12.0,0.,12.0,0.,12.0,0.,12.0
1979-07-29 09:24:11.820 ,1,1,0.,12.0,0.,12.0,0.,12.0,0.,12.0
1979-07-29 09:24:23.820 ,1,0,0.,12.0,0.,12.0,0.,12.0,0.,12.0
1979-07-29 09:24:35.820 ,1,0,0.,12.0,0.,12.0,0.,12.0,0.,12.0
1979-07-29 09:24:47.820 ,2,1,0.,12.0,0.,12.0,0.,12.0,0.,12.0
1979-07-29 09:24:59.820 ,2,1,0.,12.0,0.,12.0,0.,12.0,0.,12.0
1979-07-29 09:25:11.820 ,2,0,0.,12.0,0.,12.0,0.,12.0,0.,12.0
1979-07-29 09:25:23.820 ,2,0,0.,12.0,0.,12.0,0.,12.0,0.,12.0
1979-07-29 09:25:35.820 ,2,0,0.,12.0,0.,12.0,0.,12.0,0.,12.0
1979-07-29 09:25:47.820 ,2,0,,0,,0,,0,,0
1979-07-29 09:25:59.820 ,3,0,0.,12.0,0.,12.0,0.,12.0,0.,12.0
1979-07-29 09:26:11.820 ,3,0,0.,12.0,0.,12.0,0.,12.0,0.,12.0
1979-07-29 09:26:23.820 ,4,1,0.,12.0,0.,12.0,0.,12.0,0.,12.0
1979-07-29 09:26:35.820 ,4,1,0.,12.0,0.,12.0,0.,12.0,0.,12.0
1979-07-29 09:26:47.820 ,4,0,0.,12.0,0.,12.0,0.,12.0,0.,12.0
1979-07-29 09:26:59.820 ,4,0,0.,12.0,0.,12.0,0.,12.0,0.,12.0
1979-07-29 09:27:11.820 ,5,1,0.,12.0,0.,12.0,0.,12.0,0.,12.0
1979-07-29 09:27:23.820 ,5,1,0.,12.0,0.,12.0,0.,12.0,0.,12.0
1979-07-29 09:27:35.820 ,5,0,0.,12.0,0.,12.0,0.,12.0,0.,12.0
1979-07-29 09:27:47.820 ,5,0,0.,12.0,0.,12.0,0.,12.0,0.,12.0
1979-07-29 09:27:59.820 ,6,1,0.,12.0,0.,12.0,0.,12.0,0.,12.0
1979-07-29 09:28:11.820 ,6,1,0.,12.0,0.,12.0,0.,12.0,0.,12.0
1979-07-29 09:28:23.820 ,6,0,0.,12.0,0.,12.0,0.,12.0,0.,12.0
1979-07-29 09:28:35.820 ,6,0,0.,12.0,0.,12.0,0.,12.0,0.,12.0
1979-07-29 09:28:47.820 ,7,1,0.,12.0,0.,12.0,0.,12.0,0.,12.0
1979-07-29 09:28:59.820 ,7,1,0.,12.0,0.,12.0,0.,12.0,0.,12.0
1979-07-29 09:29:11.820 ,7,0,0.,12.0,0.,12.0,0.,12.0,0.,12.0
1979-07-29 09:29:23.820 ,7,0,0.,12.0,0.,12.0,0.,12.0,0.,12.0
1979-07-29 09:29:35.820 ,7,1,0.,12.0,0.,12.0,0.,12.0,0.,12.0
1979-07-29 09:29:47.820 ,7,1,0.,12.0,0.,12.0,0.,12.0,0.,12.0
1979-07-29 09:29:59.820 ,7,0,0.,12.0,0.,12.0,0.,12.0,0.,12.0
1979-07-29 09:30:11.820 ,7,0,0.,12.0,0.,12.0,0.,12.0,0.,12.0
1979-07-29 09:30:23.820 ,6,1,0.,12.0,0.,12.0,0.,12.0,0.,12.0
1979-07-29 09:30:35.820 ,6,1,0.,12.0,0.,12.0,0.,12.0,0.,12.0
1979-07-29 09:30:47.820 ,6,0,0.,12.0,0.,12.0,0.,12.0,0.,12.0
1979-07-29 09:30:59.820 ,6,0,0.,12.0,0.,12.0,0.,12.0,0.,12.0
1979-07-29 09:31:11.820 ,5,1,0.,12.0,0.,12.0,0.,12.0,0.,12.0
1979-07-29 09:31:23.820 ,5,1,0.,12.0,0.,12.0,0.,12.0,0.,12.0
1979-07-29 09:31:35.820 ,5,0,0.,12.0,0.,12.0,0.,12.0,0.,12.0
1979-07-29 09:31:47.820 ,5,0,0.,12.0,0.,12.0,0.,12.0,0.,12.0
1979-07-29 09:31:59.820 ,4,1,0.,12.0,0.,12.0,0.,12.0,0.,12.0
1979-07-29 09:32:11.820 ,4,1,0.,12.0,0.,12.0,0.,12.0,0.,12.0
1979-07-29 09:32:23.820 ,4,0,0.,12.0,0.,12.0,0.,12.0,0.,12.0
1979-07-29 09:32:35.820 ,4,0,0.,12.0,0.,12.0,0.,12.0,0.,12.0
1979-07-29 09:32:47.820 ,3,1,0.,12.0,0.,12.0,0.,12.0,0.,12.0
1979-07-29 09:32:59.820 ,3,1,0.,12.0,0.,12.0,0.,12.0,0.,12.0
1979-07-29 09:33:11.820 ,3,0,0.,12.0,0.,12.0,0.,12.0,0.,12.0
1979-07-29 09:33:23.820 ,3,0,0.,12.0,0.,12.0,0.,12.0,0.,12.0
1979-07-29 09:33:35.820 ,2,1,0.,12.0,0.,12.0,0.,12.0,0.,12.0
1979-07-29 09:33:47.820 ,2,1,0.,12.0,0.,12.0,0.,12.0,0.,12.0
1979-07-29 09:33:59.820 ,2,0,0.,12.0,0.,12.0,0.,12.0,0.,12.0
1979-07-29 09:34:11.820 ,2,0,0.,12.0,0.,12.0,0.,12.0,0.,12.0
1979-07-29 09:34:23.820 ,1,1,0.,12.0,0.,12.0,0.,12.0,0.,12.0
1979-07-29 09:34:35.820 ,1,1,0.,12.0,0.,12.0,0.,12.0,0.,12.0
1979-07-29 09:34:47.820 ,1,0,0.,12.0,0.,12.0,0.,12.0,0.,12.0
1979-07-29 09:34:59.820 ,1,0,0.,12.0,0.,12.0,0.,12.0,0.,12.0
1979-07-29 09:35:11.820 ,0,1,0.,12.0,0.,12.0,0.,12.0,0.,12.0
1979-07-29 09:35:23.820 ,0,1,0.,12.0,0.,12.0,0.,12.0,0.,12.0
1979-07-29 09:35:35.820 ,0,0,0.,12.0,0.,12.0,0.,12.0,0.,12.0
1979-07-29 09:35:47.820 ,0,0,0.,12.0,0.,12.0,0.,12.0,0.,12.0
1979-07-29 09:35:59.820 ,0,1,0.,12.0,0.,12.0,0.,12.0,0.,12.0
1979-07-29 09:36:11.820 ,0,1,0.,12.0,0.,12.0,0.,12.0,0.,12.0
1979-07-29 09:36:23.820 ,0,0,0.,12.0,0.,12.0,0.,12.0,0.,12.0
1979-07-29 09:36:35.820 ,0,0,0.,12.0,0.,12.0,0.,12.0,0.,12.0
1979-07-29 09:36:47.820 ,1,1,0.,12.0,0.,12.0,0.,12.0,0.,12.0
1979-07-29 09:36:59.820 ,1,1,0.,12.0,0.,12.0,0.,12.0,0.,12.0
1979-07-29 09:37:11.820 ,1,0,0.,12.0,0.,12.0,0.,12.0,0.,12.0
1979-07-29 09:37:23.820 ,1,0,0.,12.0,0.,12.0,0.,12.0,0.,12.0
1979-07-29 09:37:35.820 ,2,1,0.,12.0,0.,12.0,0.,12.0,0.,12.0
1979-07-29 09:37:47.820 ,2,1,0.,12.0,0.,12.0,0.,12.0,0.,12.0
1979-07-29 09:37:59.820 ,2,0,0.,12.0,0.,12.0,0.,12.0,0.,12.0
1979-07-29 09:38:11.820 ,2,0,0.,12.0,0.,12.0,0.,12.0,0.,12.0
1979-07-29 09:38:23.820 ,3,1,0.,12.0,0.,12.0,0.,12.0,0.,12.0
1979-07-29 09:38:35.820 ,3,1,0.,12.0,0.,12.0,0.,12.0,0.,12.0
1979-07-29 09:38:47.820 ,3,0,0.,12.0,0.,12.0,0.,12.0,0.,12.0
1979-07-29 09:38:59.820 ,3,0,0.,12.0,0.,12.0,0.,12.0,0.,12.0
1979-07-29 09:39:11.820 ,4,1,0.,12.0,0.,12.0,0.,12.0,0.,12.0
1979-07-29 09:39:23.820 ,4,1,0.,12.0,0.,12.0,0.,12.0,0.,12.0
1979-07-29 09:39:35.820 ,4,0,0.,12.0,0.,12.0,0.,12.0,0.,12.0
1979-07-29 09:39:47.820 ,4,0,0.,12.0,0.,12.0,0.,12.0,0.,12.0
1979-07-29 09:39:59.820 ,5,1,0.,12.0,0.,12.0,0.,12.0,0.,12.0
1979-07-29 09:40:11.820 ,5,1,0.,12.0,0.,12.0,0.,12.0,0.,12.0
1979-07-29 09:40:23.820 ,5,0,0.,12.0,0.,12.0,0.,12.0,0.,12.0
1979-07-29 09:40:35.820 ,5,0,1.,12.0,0.,12.0,0.,12.0,0.,12.0
1979-07-29 09:40:47.820 ,6,1,0.,12.0,0.,12.0,0.,12.0,0.,12.0
1979-07-29 09:40:59.820 ,6,1,0.,12.0,0.,12.0,0.,12.0,0.,12.0
1979-07-29 09:41:11.820 ,6,0,0.,12.0,0.,12.0,0.,12.0,0.,12.0
1979-07-29 09:41:23.820 ,6,0,0.,12.0,0.,12.0,0.,12.0,0.,12.0
1979-07-29 09:41:35.820 ,7,1,0.,12.0,0.,12.0,0.,12.0,0.,12.0
1979-07-29 09:41:47.820 ,7,1,0.,12.0,0.,12.0,0.,12.0,0.,12.0
1979-07-29 09:41:59.820 ,7,0,0.,12.0,0.,12.0,0.,12.0,0.,12.0
1979-07-29 09:42:11.820 ,7,0,0.,12.0,0.,12.0,0.,12.0,0.,12.0
1979-07-29 09:42:23.820 ,7,1,0.,12.0,0.,12.0,0.,12.0,0.,12.0
1979-07-29 09:42:35.820 ,7,1,0.,12.0,0.,12.0,0.,12.0,0.,12.0
1979-07-29 09:42:47.820 ,7,0,0.,12.0,0.,12.0,0.,12.0,0.,12.0
1979-07-29 09:42:59.820 ,7,0,0.,12.0,0.,12.0,0.,12.0,0.,12.0
1979-07-29 09:43:11.820 ,6,1,0.,12.0,0.,12.0,0.,12.0,0.,12.0
1979-07-29 09:43:23.820 ,6,1,0.,12.0,0.,12.0,0.,12.0,0.,12.0
1979-07-29 09:43:35.820 ,6,0,1.,12.0,0.,12.0,0.,12.0,0.,12.0
1979-07-29 09:43:47.820 ,6,0,0.,12.0,0.,12.0,0.,12.0,0.,12.0
1979-07-29 09:43:59.820 ,5,1,0.,12.0,0.,12.0,0.,12.0,0.,12.0
1979-07-29 09:44:11.820 ,5,1,0.,12.0,0.,12.0,0.,12.0,0.,12.0
1979-07-29 09:44:23.820 ,5,0,0.,12.0,0.,12.0,0.,12.0,0.,12.0
1979-07-29 09:44:35.820 ,5,0,0.,12.0,0.,12.0,0.,12.0,0.,12.0
1979-07-29 09:44:47.820 ,4,1,0.,12.0,0.,12.0,0.,12.0,0.,12.0
1979-07-29 09:44:59.820 ,4,1,0.,12.0,0.,12.0,0.,12.0,0.,12.0
1979-07-29 09:45:11.820 ,4,0,0.,12.0,0.,12.0,0.,12.0,0.,12.0
1979-07-29 09:45:23.820 ,4,0,0.,12.0,0.,12.0,0.,12.0,0.,12.0
1979-07-29 09:45:35.820 ,3,1,0.,12.0,0.,12.0,0.,12.0,0.,12.0
1979-07-29 09:45:47.820 ,3,1,0.,12.0,0.,12.0,0.,12.0,0.,12.0
1979-07-29 09:45:59.820 ,3,0,0.,12.0,0.,12.0,0.,12.0,0.,12.0
1979-07-29 09:46:11.820 ,3,0,0.,12.0,0.,12.0,0.,12.0,0.,12.0
1979-07-29 09:46:23.820 ,2,1,0.,12.0,0.,12.0,0.,12.0,0.,12.0
1979-07-29 09:46:35.820 ,2,1,0.,12.0,0.,12.0,0.,12.0,0.,12.0
1979-07-29 09:46:47.820 ,2,0,0.,12.0,0.,12.0,0.,12.0,0.,12.0
1979-07-29 09:46:59.820 ,2,0,0.,12.0,0.,12.0,0.,12.0,0.,12.0
1979-07-29 09:47:11.820 ,1,1,0.,12.0,0.,12.0,0.,12.0,0.,12.0
1979-07-29 09:47:23.820 ,1,1,0.,12.0,0.,12.0,0.,12.0,0.,12.0
1979-07-29 09:47:35.820 ,1,0,0.,12.0,0.,12.0,0.,12.0,0.,12.0
1979-07-29 09:47:47.820 ,1,0,0.,12.0,0.,12.0,0.,12.0,0.,12.0
1979-07-29 09:47:59.820 ,0,1,0.,12.0,0.,12.0,0.,12.0,0.,12.0
1979-07-29 09:48:11.820 ,0,1,0.,12.0,0.,12.0,0.,12.0,0.,12.0
1979-07-29 09:48:23.820 ,0,0,0.,12.0,0.,12.0,0.,12.0,0.,12.0
1979-07-29 09:48:35.820 ,0,0,0.,12.0,0.,12.0,0.,12.0,0.,12.0
1979-07-29 09:48:47.820 ,0,1,0.,12.0,0.,12.0,0.,12.0,0.,12.0
1979-07-29 09:48:59.820 ,0,1,0.,12.0,0.,12.0,0.,12.0,0.,12.0
1979-07-29 09:49:11.820 ,0,0,0.,12.0,0.,12.0,0.,12.0,0.,12.0
1979-07-29 09:49:23.820 ,0,0,0.,12.0,0.,12.0,0.,12.0,0.,12.0
1979-07-29 09:49:35.820 ,1,1,0.,12.0,0.,12.0,0.,12.0,0.,12.0
1979-07-29 09:49:47.820 ,1,1,0.,12.0,0.,12.0,0.,12.0,0.,12.0
1979-07-29 09:49:59.820 ,1,0,0.,12.0,0.,12.0,0.,12.0,0.,12.0
1979-07-29 09:50:11.820 ,1,0,0.,12.0,0.,12.0,0.,12.0,0.,12.0
1979-07-29 09:50:23.820 ,2,1,0.,12.0,0.,12.0,0.,12.0,0.,12.0
1979-07-29 09:50:35.820 ,2,1,0.,12.0,0.,12.0,0.,12.0,0.,12.0
1979-07-29 09:50:47.820 ,2,0,0.,12.0,0.,12.0,0.,12.0,0.,12.0
1979-07-29 09:50:59.820 ,2,0,0.,12.0,0.,12.0,0.,12.0,0.,12.0
1979-07-29 09:51:11.820 ,3,1,0.,12.0,0.,12.0,0.,12.0,0.,12.0
1979-07-29 09:51:23.820 ,3,1,0.,12.0,0.,12.0,0.,12.0,0.,12.0
1979-07-29 09:51:35.820 ,3,0,0.,12.0,0.,12.0,0.,12.0,0.,12.0
1979-07-29 09:51:47.820 ,3,0,0.,12.0,0.,12.0,0.,12.0,0.,12.0
1979-07-29 09:51:59.820 ,4,1,0.,12.0,0.,12.0,0.,12.0,0.,12.0
1979-07-29 09:52:11.820 ,4,1,0.,12.0,0.,12.0,0.,12.0,0.,12.0
1979-07-29 09:52:23.820 ,4,0,0.,12.0,0.,12.0,0.,12.0,0.,12.0
1979-07-29 09:52:35.820 ,4,0,0.,12.0,0.,12.0,0.,12.0,0.,12.0
1979-07-29 09:52:47.820 ,5,1,0.,12.0,0.,12.0,0.,12.0,0.,12.0
1979-07-29 09:52:59.820 ,5,1,0.,12.0,0.,12.0,0.,12.0,0.,12.0
1979-07-29 09:53:11.820 ,5,0,0.,12.0,0.,12.0,0.,12.0,0.,12.0
1979-07-29 09:53:23.820 ,5,0,0.,12.0,0.,12.0,0.,12.0,0.,12.0
1979-07-29 09:53:35.820 ,6,1,0.,12.0,0.,12.0,0.,12.0,0.,12.0
1979-07-29 09:53:47.820 ,6,1,0.,12.0,0.,12.0,0.,12.0,0.,12.0
1979-07-29 09:53:59.820 ,6,0,0.,12.0,0.,12.0,0.,12.0,0.,12.0
1979-07-29 09:54:11.820 ,6,0,0.,12.0,0.,12.0,0.,12.0,0.,12.0
1979-07-29 09:54:23.820 ,7,0,0.,12.0,0.,12.0,0.,12.0,0.,12.0
1979-07-29 09:54:35.820 ,7,0,0.,12.0,0.,12.0,0.,12.0,0.,12.0
1979-07-29 09:54:47.820 ,7,0,0.,12.0,0.,12.0,0.,12.0,0.,12.0
1979-07-29 09:54:59.820 ,7,0,0.,12.0,0.,12.0,0.,12.0,0.,12.0
1979-07-29 09:55:11.820 ,4,1,0.,12.0,0.,12.0,0.,12.0,0.,12.0
1979-07-29 09:55:23.820 ,4,1,0.,12.0,0.,12.0,0.,12.0,0.,12.0
1979-07-29 09:55:35.820 ,0,1,0.,12.0,0.,12.0,0.,12.0,0.,12.0
1979-07-29 09:55:47.820 ,0,1,0.,12.0,0.,12.0,0.,12.0,0.,12.0
1979-07-29 09:55:59.820 ,3,1,0.,12.0,0.,12.0,0.,12.0,0.,12.0
1979-07-29 09:56:11.820 ,3,1,0.,12.0,0.,12.0,0.,12.0,0.,12.0
1979-07-29 09:56:23.820 ,7,1,0.,12.0,0.,12.0,0.,12.0,0.,12.0
1979-07-29 09:56:35.820 ,7,1,0.,12.0,0.,12.0,0.,12.0,0.,12.0
1979-07-29 09:56:47.820 ,4,1,0.,12.0,0.,12.0,0.,12.0,0.,12.0
1979-07-29 09:56:59.820 ,4,1,0.,12.0,0.,12.0,0.,12.0,0.,12.0
1979-07-29 09:57:11.820 ,0,1,0.,12.0,0.,12.0,0.,12.0,0.,12.0
1979-07-29 09:57:23.820 ,0,1,0.,12.0,0.,12.0,0.,12.0,0.,12.0
1979-07-29 09:57:35.820 ,3,1,0.,12.0,0.,12.0,0.,12.0,0.,12.0
1979-07-29 09:57:47.820 ,3,1,0.,12.0,0.,12.0,0.,12.0,0.,12.0
1979-07-29 09:57:59.820 ,7,1,0.,12.0,0.,12.0,0.,12.0,0.,12.0
1979-07-29 09:58:11.820 ,7,1,0.,12.0,0.,12.0,0.,12.0,0.,12.0
1979-07-29 09:58:23.820 ,4,1,0.,12.0,0.,12.0,0.,12.0,0.,12.0
1979-07-29 09:58:35.820 ,4,1,0.,12.0,0.,12.0,0.,12.0,0.,12.0
1979-07-29 09:58:47.820 ,0,1,0.,12.0,0.,12.0,0.,12.0,0.,12.0
1979-07-29 09:58:59.820 ,0,1,0.,12.0,0.,12.0,0.,12.0,0.,12.0
1979-07-29 09:59:11.820 ,3,1,0.,12.0,0.,12.0,0.,12.0,0.,12.0
1979-07-29 09:59:23.820 ,3,1,0.,12.0,0.,12.0,0.,12.0,0.,12.0
1979-07-29 09:59:35.820 ,7,1,0.,12.0,0.,12.0,0.,12.0,0.,12.0
1979-07-29 09:59:47.820 ,7,1,0.,12.0,0.,12.0,0.,12.0,0.,12.0
1979-07-29 09:59:59.820 ,4,1,0.,12.0,0.,12.0,0.,12.0,0.,12.0
1979-07-29 10:00:11.820 ,4,1,0.,12.0,0.,12.0,0.,12.0,0.,12.0
1979-07-29 10:00:23.820 ,0,1,0.,12.0,0.,12.0,0.,12.0,0.,12.0
1979-07-29 10:00:35.820 ,0,1,0.,12.0,0.,12.0,0.,12.0,0.,12.0
1979-07-29 10:00:47.820 ,3,1,0.,12.0,0.,12.0,0.,12.0,0.,12.0
1979-07-29 10:00:59.820 ,3,1,0.,12.0,0.,12.0,0.,12.0,0.,12.0
1979-07-29 10:01:11.820 ,7,1,0.,12.0,0.,12.0,0.,12.0,0.,12.0
1979-07-29 10:01:23.820 ,7,1,0.,12.0,0.,12.0,0.,12.0,0.,12.0
1979-07-29 10:01:35.820 ,4,1,0.,12.0,0.,12.0,0.,12.0,0.,12.0
1979-07-29 10:01:47.820 ,4,1,0.,12.0,0.,12.0,0.,12.0,0.,12.0
1979-07-29 10:01:59.820 ,0,1,0.,12.0,0.,12.0,0.,12.0,0.,12.0
1979-07-29 10:02:11.820 ,0,1,0.,12.0,0.,12.0,0.,12.0,0.,12.0
1979-07-29 10:02:23.820 ,3,1,0.,12.0,0.,12.0,0.,12.0,0.,12.0
1979-07-29 10:02:35.820 ,3,1,0.,12.0,0.,12.0,0.,12.0,0.,12.0
1979-07-29 10:02:47.820 ,7,1,0.,12.0,0.,12.0,0.,12.0,0.,12.0
1979-07-29 10:02:59.820 ,7,1,0.,12.0,0.,12.0,0.,12.0,0.,12.0
1979-07-29 10:03:11.820 ,4,1,0.,12.0,0.,12.0,0.,12.0,0.,12.0
1979-07-29 10:03:23.820 ,4,1,0.,12.0,0.,12.0,0.,12.0,0.,12.0
1979-07-29 10:03:35.820 ,0,1,0.,12.0,0.,12.0,0.,12.0,0.,12.0
1979-07-29 10:03:47.820 ,0,1,0.,12.0,0.,12.0,0.,12.0,0.,12.0
1979-07-29 10:03:59.820 ,3,1,0.,12.0,0.,12.0,0.,12.0,0.,12.0
1979-07-29 10:04:11.820 ,3,1,0.,12.0,0.,12.0,0.,12.0,0.,12.0
1979-07-29 10:04:23.820 ,7,1,0.,12.0,0.,12.0,0.,12.0,0.,12.0
1979-07-29 10:04:35.820 ,7,1,0.,12.0,0.,12.0,0.,12.0,0.,12.0
1979-07-29 10:04:47.820 ,4,1,0.,12.0,0.,12.0,0.,12.0,0.,12.0
1979-07-29 10:04:59.820 ,4,1,0.,12.0,0.,12.0,0.,12.0,0.,12.0
1979-07-29 10:05:11.820 ,0,1,0.,12.0,0.,12.0,0.,12.0,0.,12.0
1979-07-29 10:05:23.820 ,0,1,0.,12.0,0.,12.0,0.,12.0,0.,12.0
1979-07-29 10:05:35.820 ,0,0,0.,12.0,0.,12.0,0.,12.0,0.,12.0
1979-07-29 10:05:47.820 ,0,0,0.,12.0,0.,12.0,0.,12.0,0.,12.0
1979-07-29 10:05:59.820 ,0,0,0.,12.0,0.,12.0,0.,12.0,0.,12.0
1979-07-29 10:06:11.820 ,0,0,0.,12.0,0.,12.0,0.,12.0,0.,12.0
1979-07-29 10:06:23.820 ,5,1,0.,12.0,0.,12.0,0.,12.0,0.,12.0
1979-07-29 10:06:35.820 ,5,1,0.,12.0,0.,12.0,0.,12.0,0.,12.0
1979-07-29 10:06:47.820 ,5,0,0.,12.0,0.,12.0,0.,12.0,0.,12.0
1979-07-29 10:06:59.820 ,5,0,0.,12.0,0.,12.0,0.,12.0,0.,12.0
1979-07-29 10:07:11.820 ,4,1,0.,12.0,0.,12.0,0.,12.0,0.,12.0
1979-07-29 10:07:23.820 ,4,1,0.,12.0,0.,12.0,0.,12.0,0.,12.0
1979-07-29 10:07:35.820 ,4,0,0.,12.0,0.,12.0,0.,12.0,0.,12.0
1979-07-29 10:07:47.820 ,4,0,0.,12.0,0.,12.0,0.,12.0,0.,12.0
1979-07-29 10:07:59.820 ,3,1,0.,12.0,0.,12.0,0.,12.0,0.,12.0
1979-07-29 10:08:11.820 ,3,1,0.,12.0,0.,12.0,0.,12.0,0.,12.0
1979-07-29 10:08:23.820 ,3,0,0.,12.0,0.,12.0,0.,12.0,0.,12.0
1979-07-29 10:08:35.820 ,3,0,0.,12.0,0.,12.0,0.,12.0,0.,12.0
1979-07-29 10:08:47.820 ,2,1,0.,12.0,0.,12.0,0.,12.0,0.,12.0
1979-07-29 10:08:59.820 ,2,1,0.,12.0,0.,12.0,0.,12.0,0.,12.0
1979-07-29 10:09:11.820 ,2,0,0.,12.0,0.,12.0,0.,12.0,0.,12.0
1979-07-29 10:09:23.820 ,2,0,0.,12.0,0.,12.0,0.,12.0,0.,12.0
1979-07-29 10:09:35.820 ,1,1,0.,12.0,0.,12.0,0.,12.0,0.,12.0
1979-07-29 10:09:47.820 ,1,1,0.,12.0,0.,12.0,0.,12.0,0.,12.0
1979-07-29 10:09:59.820 ,1,0,0.,12.0,0.,12.0,0.,12.0,0.,12.0
1979-07-29 10:10:11.820 ,1,0,0.,12.0,0.,12.0,0.,12.0,0.,12.0
1979-07-29 10:10:23.820 ,0,1,0.,12.0,0.,12.0,0.,12.0,0.,12.0
1979-07-29 10:10:35.820 ,0,1,0.,12.0,0.,12.0,0.,12.0,0.,12.0
1979-07-29 10:10:47.820 ,0,0,0.,12.0,0.,12.0,0.,12.0,0.,12.0
1979-07-29 10:10:59.820 ,0,0,0.,12.0,0.,12.0,0.,12.0,0.,12.0
1979-07-29 10:11:11.820 ,0,1,0.,12.0,0.,12.0,0.,12.0,0.,12.0
1979-07-29 10:11:23.820 ,0,1,0.,12.0,0.,12.0,0.,12.0,0.,12.0
1979-07-29 10:11:35.820 ,0,0,0.,12.0,0.,12.0,0.,12.0,0.,12.0
1979-07-29 10:11:47.820 ,0,0,0.,12.0,0.,12.0,0.,12.0,0.,12.0
1979-07-29 10:11:59.820 ,1,1,0.,12.0,0.,12.0,0.,12.0,0.,12.0
1979-07-29 10:12:11.820 ,1,1,0.,12.0,0.,12.0,0.,12.0,0.,12.0
1979-07-29 10:12:23.820 ,1,0,1.,12.0,0.,12.0,0.,12.0,0.,12.0
1979-07-29 10:12:35.820 ,1,0,0.,12.0,0.,12.0,0.,12.0,0.,12.0
1979-07-29 10:12:47.820 ,2,1,0.,12.0,0.,12.0,0.,12.0,0.,12.0
1979-07-29 10:12:59.820 ,2,1,0.,12.0,0.,12.0,0.,12.0,0.,12.0
1979-07-29 10:13:11.820 ,2,0,0.,12.0,0.,12.0,0.,12.0,0.,12.0
1979-07-29 10:13:23.820 ,2,0,0.,12.0,0.,12.0,0.,12.0,0.,12.0
1979-07-29 10:13:35.820 ,3,1,0.,12.0,0.,12.0,0.,12.0,0.,12.0
1979-07-29 10:13:47.820 ,3,1,0.,12.0,0.,12.0,0.,12.0,0.,12.0
1979-07-29 10:13:59.820 ,3,0,0.,12.0,0.,12.0,0.,12.0,0.,12.0
1979-07-29 10:14:11.820 ,3,0,0.,12.0,0.,12.0,0.,12.0,0.,12.0
1979-07-29 10:14:23.820 ,4,1,0.,12.0,0.,12.0,0.,12.0,0.,12.0
1979-07-29 10:14:35.820 ,4,1,0.,12.0,0.,12.0,0.,12.0,0.,12.0
1979-07-29 10:14:47.820 ,4,0,0.,12.0,0.,12.0,0.,12.0,0.,12.0
1979-07-29 10:14:59.820 ,4,0,0.,12.0,0.,12.0,0.,12.0,0.,12.0
1979-07-29 10:15:11.820 ,5,1,0.,12.0,0.,12.0,0.,12.0,0.,12.0
1979-07-29 10:15:23.820 ,5,1,0.,12.0,0.,12.0,0.,12.0,0.,12.0
1979-07-29 10:15:35.820 ,5,0,0.,12.0,0.,12.0,0.,12.0,0.,12.0
1979-07-29 10:15:47.820 ,5,0,0.,12.0,0.,12.0,0.,12.0,0.,12.0
1979-07-29 10:15:59.820 ,6,1,0.,12.0,0.,12.0,0.,12.0,0.,12.0
1979-07-29 10:16:11.820 ,6,1,0.,12.0,0.,12.0,0.,12.0,0.,12.0
1979-07-29 10:16:23.820 ,6,0,0.,12.0,0.,12.0,0.,12.0,0.,12.0
1979-07-29 10:16:35.820 ,6,0,0.,12.0,0.,12.0,0.,12.0,0.,12.0
1979-07-29 10:16:47.820 ,7,1,0.,12.0,0.,12.0,0.,12.0,0.,12.0
1979-07-29 10:16:59.820 ,7,1,0.,12.0,0.,12.0,0.,12.0,0.,12.0
1979-07-29 10:17:11.820 ,7,0,0.,12.0,0.,12.0,0.,12.0,0.,12.0
1979-07-29 10:17:23.820 ,7,0,0.,12.0,0.,12.0,0.,12.0,0.,12.0